Location: Bukit Nyuki
(2.5885°N, 113.7476°E)
Time: 04:32:22
(UTC+00:00)

COSMOS 2428 - Pass Details

Date: 18 May 2021
Orbit: 844 x 859 km, 70.9° (Epoch: 22 June)

Event Time Altitude Azimuth Distance (km) Brightness Sun altitude
Exits shadow 20:56:27 18° 298° (WNW) 1,947 4.2 -19.0°
Drops below altitude 10° 20:59:30 10° 330° (NNW) 2,470 5.0 -18.3°
Sets 21:02:41 0° 348° (NNW) 3,406 6.0 -17.6°
